THORAD AGENA D DEB, 4996

Orbit data source: Space-Track

THORAD AGENA D DEB, 4996 is space debris in SSO originally from a launch on Wed, 08 Apr 1970 UTC launched from the Air Force Western Test Range (AFWTR). Debris objects in space refer to the collection of defunct objects orbiting the Earth. Examples of debris include non-operational satellites, rocket bodies, and fragments generated from explosions, collisions, or faulty payload assembly.

Loading next visibility...
Identifier
4996, 1970-025HS
Orbit
SSO
Country
Flag of USUS
Related business
Manufacturer
Unknown
Mission
Spacecraft
Bus & Motor
Unknown
Mass
Unknown
Launch date (UTC)
1970-04-08 (56 years ago)
Launch vehicle
Unknown
Launch site
Air Force Western Test Range (AFWTR)
Object type
Payload
Rocket body
Debris
Shape & HBR
Unknown shape, 0.1 m
Radar Cross Section
Small (<0.1 m²)

Expand to show TLE details & history
Last TLE update: 15 hours ago

TLE from 15 hours ago
0 THORAD AGENA D DEB
1  4996U 70025HS  26095.25920836  .00003766  00000-0  20769-2 0  9997
2  4996 100.3364 204.7049 0068930 273.3502  85.9780 14.11069848807948
Epoch: 2026-04-05T06:13Z
TLE epoch observation values (Epoch: 2026-04-05T06:13:15.602Z)
Latitude
-0.00006°
Longitude
-82.1773°
Altitude
855.403 km
Speed
7.427 km/s
True Right ascension
13h 38m 49s
True Declination
0° 00' 00"
Sunlit
Object was in full shadow at epoch
Visualization orbit readout
Latitude
Unknown
Longitude
Unknown
Altitude
Unknown
Speed
Unknown
Apparent Right ascension
Unknown
Apparent Declination
Unknown
Sunlit
N/A
Visualization observer readout
Local Sidereal Time
03:00:09
Azimuth
Unknown
Elevation
Unknown
Doppler factor
Unknown
Orbital elements
Apogee altitude
902.812 km
Perigee altitude
803.124 km
Semi-major axis
7,231.105 km
Eccentricity
0.00689
Inclination
100.3364°
RAAN
204.7049°
Arg. of periapsis
273.3502°
True anomaly
86.76639°
Mean anomaly
85.978°
Eccentric anomaly
86.37215°
Mean motion
3.52969 °/min
Orbital period
101.99 mins
BSTAR
0.0020769
Loading maneuver chart data...
Computing Atmospheric mass density...

Documentation

Showing up to 5 results
|